Weather History for KMLU - December, 2012

Change the Weather History Date:

Wednesday, December 12, 2012

  Actual Average Record
Temperature  
Mean Temperature 42 °F 49 °F  
Max Temperature 54 °F 59 °F 80 °F (1996)
Min Temperature 29 °F 38 °F 11 °F (1962)
Degree Days  
Heating Degree Days 23 17  
Month to date heating degree days 77 186  
Since 1 July heating degree days 507 558  
Cooling Degree Days 0 0  
Month to date cooling degree days 14 0  
Year to date cooling degree days 2783 2508  
Moisture  
Dew Point 27 °F    
Average Humidity 58    
Maximum Humidity 89    
Minimum Humidity 26    
Precipitation  
Precipitation 0.00 in 0.17 in 2.97 in (1979)
Month to date precipitation 1.79 2.09  
Year to date precipitation 53.64 50.82  
Snow  
Snow 0.00 in - - ()
Month to date snowfall 0.0  
Since 1 July snowfall 0.0  
Snow Depth 0.00 in    
Sea Level Pressure  
Sea Level Pressure 30.32 in    
Wind  
Wind Speed 4 mph (NNE)    
Max Wind Speed 14 mph    
Max Gust Speed 17 mph    
Visibility 10 miles    
Events      
T = Trace of Precipitation, MM = Missing Value Source: NWS Daily Summary

Daily Weather History Graph

Daily Weather History Graph

Search for Another Location

Airport or City:

Trip Planner

Search our weather history database for the weather conditions in past years. The results will help you decide how hot, cold, wet, or windy it might be!

Date:

Astronomy

Dec. 12, 2012 Rise Set
Actual Time 7:00 AM CST 5:03 PM CST
Civil Twilight 6:33 AM CST 5:30 PM CST
Nautical Twilight 6:03 AM CST 6:01 PM CST
Astronomical Twilight 5:33 AM CST 6:31 PM CST
Moon 6:06 AM CST (12/12) 4:40 PM CST (12/12)
Length of Visible Light 10h 56m
Length of Day
10h 02m
Waning Crescent, 1% of the Moon is Illuminated
Dec 12
Waning Crescent
Dec 13
New
Dec 19
First Quarter
Dec 28
Full
Jan 4
Last Quarter

Hourly Weather History & Observations

Time (CST) Temp. Windchill Dew Point Humidity Pressure Visibility Wind Dir Wind Speed Gust Speed Precip Events Conditions
12:53 AM 36.0 °F 31.1 °F 28.0 °F 73% 30.27 in 10.0 mi North 5.8 mph - N/A   Clear
1:53 AM 33.1 °F 27.7 °F 27.0 °F 78% 30.26 in 10.0 mi NNE 5.8 mph - N/A   Clear
2:53 AM 33.1 °F 28.7 °F 27.0 °F 78% 30.27 in 10.0 mi North 4.6 mph - N/A   Clear
3:53 AM 32.0 °F 28.7 °F 27.0 °F 82% 30.27 in 10.0 mi North 3.5 mph - N/A   Clear
4:53 AM 30.9 °F - 26.1 °F 82% 30.28 in 10.0 mi Calm Calm - N/A   Clear
5:53 AM 30.2 °F 26.7 °F 26.6 °F 86% 30.30 in 10.0 mi North 3.5 mph - N/A   Clear
6:53 AM 30.9 °F - 27.0 °F 85% 30.33 in 10.0 mi Calm Calm - N/A   Clear
7:53 AM 33.1 °F 28.7 °F 28.9 °F 85% 30.35 in 10.0 mi NNE 4.6 mph - N/A   Clear
8:53 AM 37.9 °F 33.5 °F 30.0 °F 73% 30.38 in 10.0 mi NNE 5.8 mph - N/A   Clear
9:53 AM 44.1 °F 42.5 °F 28.9 °F 55% 30.39 in 10.0 mi Variable 3.5 mph - N/A   Clear
10:53 AM 48.9 °F - 26.1 °F 41% 30.38 in 10.0 mi ENE 10.4 mph - N/A   Clear
11:53 AM 51.1 °F - 21.9 °F 32% 30.36 in 10.0 mi NE 11.5 mph - N/A   Clear
12:53 PM 52.0 °F - 19.9 °F 28% 30.34 in 10.0 mi NE 11.5 mph - N/A   Clear
1:53 PM 53.1 °F - 21.0 °F 29% 30.30 in 10.0 mi ENE 6.9 mph - N/A   Clear
2:53 PM 53.1 °F - 19.9 °F 27% 30.30 in 10.0 mi NE 8.1 mph - N/A   Clear
3:53 PM 52.0 °F - 25.0 °F 35% 30.30 in 10.0 mi NE 8.1 mph - N/A   Clear
4:53 PM 48.0 °F - 27.0 °F 44% 30.32 in 10.0 mi NE 3.5 mph - N/A   Clear
5:53 PM 45.0 °F - 27.0 °F 49% 30.32 in 10.0 mi Calm Calm - N/A   Clear
6:53 PM 41.0 °F - 30.0 °F 65% 30.32 in 10.0 mi Calm Calm - N/A   Clear
7:53 PM 37.0 °F - 30.0 °F 76% 30.34 in 10.0 mi Calm Calm - N/A   Clear
8:53 PM 34.0 °F - 28.9 °F 82% 30.34 in 10.0 mi Calm Calm - N/A   Clear
9:53 PM 35.1 °F - 28.0 °F 76% 30.35 in 10.0 mi Calm Calm - N/A   Clear
10:53 PM 34.0 °F - 30.0 °F 85% 30.36 in 9.0 mi Calm Calm - N/A   Clear
11:53 PM 33.1 °F - 30.0 °F 89% 30.35 in 5.0 mi Calm Calm - N/A   Clear